Temp
81 81 79 71 60 57 55 62 69 68 68 73 77 72 70 71 67 57 72 75 77 77 80 81 82 83 83 83 82 82 82 82 82 82 83 83 83 83 82 83 84 83 83 84 83 83 84 83 83
79 79 74 68 57 53 57 67 66 70 73 76 77 75 71 66 73 69 72 77 79 78 79 80 82 83 83 82 82 82 83 83 82 82 82 82 83 83 83 83 82 83 83 83 83 83 83 83 83
80 81 66 62 57 54 57 67 69 74 78 77 74 77 74 69 73 72 76 78 78 77 78 79 82 83 83 82 82 82 83 82 82 82 83 83 83 83 83 83 83 83 83 82 83 84 84 83 83
76 71 68 59 57 64 68 71 74 74 77 79 76 70 77 80 75 77 78 79 77 76 77 81 83 83 83 82 82 82 82 82 82 82 82 83 83 83 83 83 83 83 83 83 84 84 83 84 83
73 67 58 58 61 68 72 76 76 73 74 76 77 69 70 78 79 77 77 79 75 75 77 81 82 83 83 82 82 82 82 82 83 83 83 83 83 83 83 83 83 83 82 83 83 84 83 83 82
65 64 58 58 64 73 75 76 77 75 75 76 73 70 69 77 75 76 78 77 77 75 77 79 82 82 82 82 82 82 82 83 83 83 83 83 83 83 83 83 83 83 83 83 83 83 83 83 83
66 62 60 60 66 72 76 80 75 73 73 75 78 67 67 72 76 77 77 77 77 76 77 76 79 81 83 83 83 83 83 83 83 83 83 83 83 83 83 83 83 83 82 83 83 83 83 82 82
70 64 67 66 65 68 77 78 81 76 74 83 81 67 64 73 77 77 76 74 74 75 75 74 75 79 79 80 83 83 83 83 83 83 83 83 83 83 83 81 81 83 82 83 83 83 83 82 82
77 63 61 66 70 73 75 75 80 83 77 80 80 76 77 78 77 74 72 71 72 74 73 74 74 74 75 76 80 82 83 83 83 82 83 82 78 79 81 81 81 82 83 83 83 83 82 82 82
68 59 66 73 76 76 79 79 79 77 75 77 77 79 79 77 75 71 70 70 71 72 72 73 73 73 74 79 77 77 78 78 77 78 77 76 76 75 78 80 82 82 83 83 83 83 82 82 78
70 64 73 76 80 80 77 79 82 76 70 76 74 73 75 75 73 72 72 72 72 73 74 73 74 73 74 76 74 75 75 75 75 75 75 75 74 75 76 74 76 77 80 80 81 80 80 78 77
68 74 77 77 80 77 78 80 77 78 80 85 80 77 76 74 72 72 72 73 73 73 74 74 74 73 73 75 75 75 75 74 73 74 74 73 72 73 72 72 74 74 75 76 75 75 77 76 76
72 75 78 80 78 79 80 78 80 79 86 84 81 77 75 75 74 75 75 75 75 73 74 74 74 73 73 73 74 75 75 75 74 73 74 74 73 72 72 72 73 73 74 75 75 74 74 75 75
77 77 77 79 78 81 77 75 79 82 82 79 81 75 76 75 75 74 75 74 74 75 74 75 74 74 74 74 73 74 75 74 73 73 74 74 74 72 71 71 72 73 73 74 75 74 74 74 75
75 70 74 75 76 76 76 71 73 81 80 77 78 79 78 76 77 75 76 75 76 76 76 74 74 74 73 73 74 74 74 74 73 73 73 73 73 72 71 71 71 73 73 74 73 73 73 73 75
66 63 61 71 75 78 76 65 77 81 77 75 77 80 78 77 76 77 77 77 77 77 75 75 77 75 74 74 73 74 74 74 73 73 73 71 71 72 71 71 71 72 73 72 72 72 72 72 72
60 55 59 67 75 74 72 67 77 77 78 76 78 77 79 78 77 77 79 79 78 77 75 74 75 74 74 74 73 74 74 72 73 73 72 71 71 72 71 71 71 72 71 71 71 71 72 71 71
56 55 57 59 71 72 68 68 73 77 76 76 78 76 76 76 78 79 79 80 79 78 76 75 75 75 74 73 72 72 72 72 73 73 73 72 72 72 70 69 70 71 71 71 71 71 71 72 71
62 60 61 62 71 66 66 67 72 75 73 74 75 75 75 77 80 81 80 81 78 77 75 74 74 74 74 72 71 70 72 70 70 71 73 73 73 73 71 70 70 70 70 71 71 71 70 70 71
63 59 58 64 69 66 65 68 74 71 73 75 77 75 75 75 77 78 79 80 79 77 75 74 74 74 74 75 73 72 70 71 71 71 72 73 73 73 72 70 70 70 70 70 70 71 69 70 70
59 56 58 60 65 65 64 60 64 71 72 74 75 77 77 77 75 77 77 78 80 78 76 75 74 74 75 74 72 70 71 70 70 70 70 71 73 74 72 71 71 70 70 69 70 70 70 69 69
54 66 67 62 58 53 61 52 58 66 67 71 73 75 78 79 79 77 78 77 80 80 78 76 75 74 74 73 73 72 70 71 70 70 71 72 73 73 73 72 71 71 70 70 70 70 71 70 68
63 69 66 64 55 50 54 50 57 59 64 69 70 74 77 81 80 77 79 79 81 82 79 76 74 73 74 74 74 73 70 69 68 70 70 71 72 73 73 72 71 70 70 70 70 69 69 70 69
71 65 59 52 50 45 53 52 51 59 67 70 72 74 76 79 79 80 80 80 79 81 77 75 73 73 73 74 73 72 69 69 69 69 70 70 70 71 72 73 71 71 70 70 70 70 70 69 69
66 56 45 43 43 45 49 50 54 65 68 71 74 78 77 75 76 76 77 76 77 76 75 74 73 72 73 73 73 71 70 70 70 69 68 69 69 69 70 70 70 70 70 70 70 70 69 69 67
59 57 50 40 40 48 52 49 59 68 72 71 72 73 76 76 74 76 77 76 77 77 73 74 73 72 72 73 71 72 71 70 69 70 70 69 69 70 71 70 70 71 70 71 70 69 69 70 69
61 57 62 53 43 44 49 55 64 68 71 69 70 71 70 72 73 73 75 76 76 74 73 74 73 73 72 72 72 70 70 69 69 69 71 71 71 71 71 70 70 70 71 71 70 69 68 68 69
68 69 56 53 42 41 46 49 52 62 67 66 64 64 66 68 69 70 71 72 73 73 73 73 73 72 72 71 71 70 69 69 67 69 71 71 71 71 70 70 70 70 70 71 70 69 69 69 68
60 56 51 54 51 44 41 48 58 61 65 64 64 66 66 68 69 70 71 71 72 71 71 71 71 71 71 70 70 68 68 68 68 69 72 72 71 70 70 70 70 70 70 71 71 69 69 68 69
63 59 60 51 45 43 44 50 61 62 63 65 66 67 68 70 70 71 71 71 70 70 69 70 70 71 71 71 70 69 70 70 70 71 72 71 70 70 70 70 69 70 70 70 70 70 71 70 69
MSLP
1010.63 1010.86 1011.07 1011.16 1011.49 1010.81 1009.56 1008.30 1007.42 1007.19 1007.11 1007.06 1007.46 1008.23 1008.77 1009.16 1009.81 1010.91 1010.17 1010.20 1010.29 1010.85 1011.21 1011.69 1012.05 1012.38 1012.74 1013.15 1013.46 1013.74 1013.92 1014.11 1014.28 1014.38 1014.56 1014.86 1014.94 1015.03 1015.38 1015.38 1015.45 1015.71 1015.80 1015.85 1015.99 1016.14 1016.20 1016.49 1016.66
1010.68 1011.09 1011.26 1010.94 1010.84 1010.22 1009.17 1007.83 1007.27 1006.96 1006.83 1006.98 1007.26 1007.77 1008.33 1009.01 1009.33 1009.98 1010.20 1010.18 1010.26 1010.60 1011.14 1011.67 1012.11 1012.47 1012.84 1013.13 1013.42 1013.75 1014.00 1014.22 1014.40 1014.54 1014.74 1014.89 1015.02 1015.28 1015.36 1015.49 1015.73 1015.84 1015.96 1016.10 1016.21 1016.30 1016.38 1016.62 1016.80
1010.81 1010.84 1011.09 1010.62 1010.33 1009.64 1008.51 1007.54 1007.00 1006.79 1006.78 1006.83 1007.19 1007.51 1008.08 1008.68 1009.26 1009.49 1009.50 1009.95 1010.48 1010.95 1011.12 1011.52 1011.87 1012.33 1012.80 1013.25 1013.55 1013.77 1013.99 1014.31 1014.62 1014.83 1014.95 1015.07 1015.16 1015.22 1015.44 1015.54 1015.74 1015.92 1016.06 1016.27 1016.37 1016.41 1016.54 1016.88 1016.95
1010.82 1010.98 1010.93 1010.31 1009.24 1008.17 1007.33 1006.93 1006.73 1006.66 1006.66 1006.76 1007.22 1007.91 1008.14 1008.38 1008.96 1009.34 1009.88 1010.25 1010.57 1011.04 1011.29 1011.51 1011.78 1012.10 1012.56 1013.06 1013.46 1013.77 1014.07 1014.33 1014.57 1014.84 1015.02 1015.15 1015.31 1015.42 1015.59 1015.69 1015.83 1015.98 1016.28 1016.36 1016.45 1016.61 1016.77 1016.96 1017.20
1010.75 1010.93 1010.74 1009.97 1008.50 1007.37 1006.44 1006.23 1006.68 1006.50 1006.54 1006.79 1007.27 1008.06 1008.53 1008.76 1008.88 1009.40 1009.92 1010.62 1010.95 1011.19 1011.28 1011.42 1011.68 1012.03 1012.42 1012.77 1013.22 1013.64 1013.96 1014.27 1014.57 1014.73 1014.91 1015.16 1015.39 1015.60 1015.73 1015.95 1015.97 1016.14 1016.34 1016.46 1016.68 1016.78 1016.96 1017.22 1017.40
1010.74 1011.03 1010.58 1009.55 1008.10 1006.60 1006.13 1006.32 1006.59 1006.67 1006.65 1006.83 1007.42 1008.11 1008.81 1008.80 1009.06 1009.53 1009.86 1010.33 1011.02 1011.54 1011.52 1011.66 1011.81 1012.11 1012.48 1012.80 1013.05 1013.39 1013.80 1014.14 1014.44 1014.75 1014.94 1015.10 1015.39 1015.62 1015.78 1015.96 1016.15 1016.23 1016.35 1016.60 1016.83 1016.92 1017.15 1017.39 1017.60
1010.21 1010.41 1009.93 1008.95 1007.63 1006.38 1005.85 1005.97 1006.41 1006.53 1006.75 1006.64 1007.04 1008.31 1008.99 1009.15 1009.23 1009.64 1010.31 1010.73 1011.12 1011.37 1011.68 1011.75 1011.89 1012.17 1012.54 1012.86 1013.15 1013.45 1013.80 1014.14 1014.52 1014.70 1014.89 1015.17 1015.40 1015.64 1015.84 1015.97 1016.20 1016.29 1016.39 1016.62 1016.88 1017.09 1017.35 1017.60 1017.74
1009.49 1009.76 1009.04 1008.13 1007.19 1006.07 1005.21 1005.30 1005.54 1006.21 1006.56 1006.09 1006.55 1007.57 1008.46 1008.48 1009.24 1009.86 1010.26 1010.76 1011.32 1011.77 1012.01 1012.03 1012.04 1012.12 1012.52 1012.92 1013.24 1013.55 1013.80 1014.16 1014.44 1014.70 1014.90 1015.17 1015.47 1015.68 1015.87 1016.08 1016.25 1016.37 1016.54 1016.65 1016.89 1017.20 1017.47 1017.69 1017.83
1008.96 1009.35 1008.99 1007.94 1006.70 1005.61 1004.94 1005.17 1004.93 1005.14 1006.03 1006.17 1006.34 1006.64 1006.73 1007.76 1009.10 1009.87 1010.48 1011.03 1011.39 1011.51 1011.78 1012.02 1012.38 1012.52 1012.67 1012.97 1013.16 1013.48 1013.81 1014.09 1014.33 1014.67 1014.99 1015.19 1015.56 1015.75 1015.88 1016.10 1016.36 1016.45 1016.50 1016.68 1016.93 1017.20 1017.48 1017.69 1017.86
1008.84 1009.03 1008.03 1006.79 1005.84 1005.29 1004.49 1004.61 1004.56 1005.09 1005.76 1006.03 1006.15 1006.25 1006.75 1007.74 1008.82 1009.68 1010.13 1010.54 1010.98 1011.26 1011.66 1011.95 1012.23 1012.59 1013.03 1013.09 1013.30 1013.54 1013.70 1013.99 1014.36 1014.71 1014.97 1015.22 1015.57 1015.87 1016.00 1016.05 1016.18 1016.18 1016.43 1016.59 1016.81 1017.15 1017.41 1017.65 1017.98
1008.17 1007.77 1006.43 1005.92 1005.15 1004.69 1004.32 1003.72 1003.79 1004.51 1005.41 1004.76 1005.05 1005.99 1006.89 1007.80 1008.40 1009.19 1009.76 1009.81 1010.08 1010.56 1011.24 1011.70 1012.04 1012.28 1012.67 1012.94 1013.28 1013.48 1013.67 1013.92 1014.31 1014.62 1014.98 1015.30 1015.61 1015.83 1016.06 1016.21 1016.20 1016.36 1016.39 1016.47 1016.74 1017.03 1017.33 1017.70 1018.01
1007.26 1006.34 1005.65 1004.67 1004.23 1004.18 1003.84 1003.01 1003.27 1003.56 1003.23 1003.53 1004.75 1005.57 1006.39 1007.61 1008.25 1008.24 1008.98 1009.67 1010.24 1010.67 1010.84 1011.43 1011.82 1012.27 1012.55 1012.84 1013.19 1013.50 1013.86 1014.06 1014.17 1014.43 1014.83 1015.13 1015.46 1015.71 1015.98 1016.22 1016.30 1016.35 1016.51 1016.63 1016.90 1017.13 1017.34 1017.71 1017.96
1006.20 1005.47 1004.84 1004.09 1004.10 1003.41 1002.81 1002.66 1002.83 1002.75 1002.60 1003.41 1004.52 1005.50 1006.27 1006.92 1007.69 1008.33 1008.34 1008.95 1009.71 1010.16 1010.57 1011.04 1011.63 1011.97 1012.33 1012.71 1012.95 1013.24 1013.41 1013.65 1014.03 1014.13 1014.49 1014.88 1015.18 1015.67 1015.72 1015.93 1016.11 1016.26 1016.44 1016.61 1016.80 1017.09 1017.40 1017.50 1017.73
1004.87 1004.69 1004.29 1003.70 1003.53 1002.84 1002.57 1002.76 1002.94 1001.88 1002.66 1003.59 1004.20 1005.27 1005.94 1006.82 1007.09 1007.92 1008.24 1008.39 1009.00 1009.47 1009.99 1010.53 1011.28 1011.63 1012.00 1012.44 1012.77 1012.62 1012.90 1013.22 1013.66 1014.01 1014.20 1014.71 1014.85 1015.24 1015.56 1015.71 1015.93 1015.94 1016.11 1016.48 1016.74 1016.86 1017.16 1017.40 1017.49
1004.93 1004.75 1003.90 1003.37 1003.12 1002.71 1002.51 1002.91 1002.84 1002.22 1002.75 1003.24 1004.09 1004.66 1004.35 1005.39 1006.50 1006.89 1007.28 1007.59 1007.96 1008.67 1009.37 1010.03 1010.73 1011.33 1011.66 1012.17 1012.52 1012.52 1012.58 1013.02 1013.45 1013.84 1014.08 1014.39 1014.57 1014.93 1015.19 1015.36 1015.82 1015.71 1015.86 1016.16 1016.54 1016.90 1017.06 1017.25 1017.36
1005.43 1005.23 1004.49 1003.26 1002.80 1002.51 1002.90 1003.02 1002.31 1002.12 1002.58 1002.75 1003.37 1003.48 1004.39 1004.92 1005.60 1006.39 1006.66 1006.91 1007.62 1008.16 1008.84 1009.54 1010.21 1010.80 1011.28 1011.68 1012.11 1012.21 1012.54 1012.84 1013.04 1013.36 1013.67 1014.12 1014.53 1014.63 1015.00 1015.28 1015.39 1015.53 1015.83 1016.02 1016.42 1016.75 1017.09 1017.27 1017.28
1006.45 1005.81 1005.12 1004.14 1002.83 1002.85 1002.96 1002.94 1001.54 1001.80 1002.00 1002.25 1002.75 1003.04 1003.73 1004.49 1005.07 1005.53 1005.91 1006.19 1006.90 1007.33 1008.12 1008.94 1009.66 1010.23 1010.70 1011.21 1011.65 1011.90 1012.12 1012.63 1012.77 1013.00 1013.26 1013.56 1013.93 1014.28 1014.58 1014.88 1015.12 1015.33 1015.70 1015.93 1016.17 1016.61 1016.62 1016.99 1017.14
1006.45 1005.99 1005.28 1004.83 1004.02 1003.21 1003.09 1002.83 1001.77 1001.57 1001.48 1001.70 1002.18 1003.06 1003.34 1003.71 1003.39 1004.34 1005.13 1005.63 1006.41 1007.03 1007.66 1008.36 1008.97 1009.50 1010.16 1010.81 1011.48 1011.85 1012.13 1012.38 1012.48 1012.61 1012.77 1013.22 1013.53 1013.90 1014.32 1014.56 1014.70 1015.03 1015.46 1015.72 1015.98 1016.23 1016.55 1016.55 1016.82
1005.99 1005.86 1005.45 1004.65 1004.51 1004.31 1003.78 1003.41 1002.08 1001.39 1001.27 1001.42 1001.59 1002.18 1002.85 1002.30 1003.41 1004.10 1004.57 1004.97 1005.87 1006.61 1007.37 1007.71 1008.51 1009.05 1009.90 1010.59 1011.25 1011.69 1011.75 1012.04 1012.28 1012.46 1012.50 1012.72 1013.06 1013.41 1013.81 1014.11 1014.34 1014.58 1015.07 1015.26 1015.54 1015.81 1016.11 1016.48 1016.61
1005.86 1005.79 1005.39 1004.76 1004.37 1004.38 1003.94 1003.29 1001.88 1001.35 1001.02 1000.56 1000.92 1001.63 1001.85 1002.79 1002.78 1003.40 1003.95 1004.44 1005.02 1005.88 1006.53 1007.26 1007.60 1008.37 1009.26 1009.90 1010.32 1010.82 1011.21 1011.43 1011.70 1012.02 1012.16 1012.36 1012.54 1012.81 1013.26 1013.58 1013.92 1014.17 1014.51 1014.83 1015.21 1015.52 1015.76 1015.99 1016.38
1005.23 1005.46 1005.33 1005.18 1004.89 1004.32 1004.13 1003.48 1002.36 1001.29 1000.89 1000.40 1000.46 1000.41 1000.97 1001.55 1001.94 1002.55 1003.21 1003.27 1004.23 1005.01 1005.56 1006.16 1006.75 1007.59 1008.46 1009.19 1010.01 1010.61 1011.03 1011.48 1011.74 1012.07 1012.04 1012.13 1012.25 1012.27 1012.63 1013.08 1013.29 1013.69 1014.02 1014.28 1014.57 1014.99 1015.14 1015.54 1015.88
1004.77 1004.28 1004.77 1005.41 1005.71 1005.48 1004.81 1004.42 1003.06 1001.71 1001.46 1000.84 1000.17 1000.27 999.88 999.97 1000.59 1001.23 1001.86 1002.57 1002.83 1003.23 1004.52 1005.56 1006.36 1006.98 1007.83 1008.53 1009.23 1009.74 1010.30 1010.93 1011.32 1011.29 1011.33 1011.54 1011.71 1011.88 1012.06 1012.49 1012.76 1013.08 1013.56 1013.92 1014.11 1014.41 1014.70 1015.05 1015.52
1003.29 1003.81 1004.45 1005.21 1005.96 1006.23 1005.62 1005.57 1003.28 1002.31 1001.57 1000.70 1000.12 999.58 999.21 998.67 999.49 999.95 1000.27 1000.62 1001.30 1002.57 1003.47 1004.66 1005.95 1006.65 1007.22 1007.83 1008.37 1009.51 1010.19 1010.38 1010.77 1011.00 1011.27 1011.27 1011.21 1011.27 1011.46 1011.70 1011.98 1012.62 1013.06 1013.37 1013.78 1014.14 1014.42 1014.78 1015.03
1002.86 1003.91 1004.77 1006.04 1006.60 1006.95 1005.24 1005.15 1003.82 1002.30 1000.84 999.68 998.96 999.05 998.58 998.15 998.36 998.72 999.58 1000.70 1001.42 1002.49 1003.47 1004.52 1005.48 1006.20 1006.63 1007.31 1008.09 1008.76 1009.69 1010.21 1010.70 1010.99 1010.89 1010.74 1011.07 1011.32 1011.46 1011.46 1011.65 1012.01 1012.50 1012.95 1013.31 1013.71 1014.11 1014.41 1014.66
1002.81 1004.36 1005.72 1006.67 1007.11 1006.51 1005.45 1005.23 1003.34 1001.29 999.92 999.20 998.52 997.76 997.59 997.89 997.96 998.22 999.01 1000.04 1000.91 1001.87 1002.82 1003.88 1004.85 1005.85 1006.23 1006.98 1007.89 1008.68 1009.15 1009.62 1010.07 1010.46 1010.69 1010.60 1010.35 1011.11 1011.07 1011.45 1011.52 1011.73 1011.87 1012.36 1012.86 1013.29 1013.65 1013.98 1014.36
1002.33 1003.43 1005.02 1006.13 1006.97 1006.26 1005.25 1004.18 1001.68 1000.02 999.18 998.78 998.60 998.10 997.62 997.37 997.46 997.73 998.45 999.48 1000.17 1001.44 1002.43 1003.40 1004.38 1005.33 1005.93 1006.71 1007.46 1008.21 1008.81 1009.21 1009.60 1009.45 1009.57 1009.75 1009.91 1010.59 1010.72 1011.16 1011.28 1011.57 1011.77 1011.95 1012.43 1012.81 1013.17 1013.60 1013.88
1001.84 1002.83 1003.38 1004.84 1006.47 1006.36 1004.97 1003.35 1001.29 999.44 998.91 998.89 998.76 998.18 997.50 997.32 997.28 997.72 998.67 999.34 1000.17 1001.17 1001.97 1002.83 1003.99 1005.05 1005.65 1006.56 1007.27 1008.11 1008.59 1008.89 1008.95 1009.27 1009.45 1009.60 1009.92 1010.24 1010.41 1010.73 1011.05 1011.31 1011.47 1011.47 1011.89 1012.32 1012.69 1013.13 1013.42
1001.18 1001.98 1003.11 1004.66 1006.30 1006.70 1005.40 1004.18 1002.41 1000.86 999.95 999.37 999.25 998.70 998.18 997.88 998.22 998.67 999.30 1000.02 1000.74 1001.51 1002.40 1003.22 1003.99 1004.66 1005.38 1006.35 1007.05 1007.64 1008.22 1008.68 1008.81 1009.01 1009.12 1009.54 1009.68 1009.91 1010.05 1010.37 1010.51 1010.70 1011.03 1011.31 1011.62 1012.07 1012.24 1012.68 1013.01
1001.48 1002.17 1003.56 1003.83 1005.38 1006.09 1005.95 1003.79 1001.84 1001.32 1000.43 1000.00 999.73 999.31 999.20 999.03 999.10 999.42 1000.01 1000.69 1001.37 1002.12 1002.92 1003.63 1004.25 1004.82 1005.54 1006.10 1006.57 1007.32 1008.02 1008.20 1008.60 1008.53 1008.55 1008.66 1009.13 1009.39 1009.60 1009.80 1010.03 1010.42 1010.68 1010.99 1011.30 1011.60 1011.94 1012.38 1012.69
1001.06 1001.37 1001.98 1003.60 1005.52 1005.86 1005.71 1002.99 1001.74 1001.27 1000.75 1000.99 999.87 999.31 999.34 999.43 999.87 1000.08 1000.47 1001.01 1001.63 1002.26 1003.11 1003.90 1004.69 1005.07 1005.58 1006.07 1006.74 1007.23 1007.67 1007.75 1007.98 1008.24 1008.29 1008.62 1008.68 1008.97 1009.39 1009.61 1009.50 1010.05 1010.35 1010.67 1010.93 1011.42 1011.53 1011.88 1012.27
Wind_Speed
6 4 2 1 2 3 2 1 0 3 1 1 7 5 5 3 4 4 2 3 12 12 12 13 16 17 17 16 15 14 14 15 15 14 13 13 11 11 12 13 13 12 12 12 12 12 13 13 13
4 4 1 2 3 3 4 3 3 3 3 7 6 4 2 2 3 6 6 7 13 13 11 11 15 15 16 16 15 15 14 13 13 13 12 11 12 11 10 11 12 11 12 11 12 13 13 13 15
6 6 1 1 3 2 3 2 3 4 9 4 4 3 3 3 3 9 6 14 12 11 11 12 17 17 16 15 15 15 14 13 12 12 12 12 11 11 9 11 10 11 11 12 13 13 13 13 13
4 2 2 1 3 4 4 5 3 7 3 4 5 4 3 3 8 4 12 13 13 10 9 15 18 18 18 17 16 14 13 13 12 11 10 11 10 11 10 10 11 10 12 11 12 12 13 13 14
2 2 2 2 5 3 2 6 5 6 2 4 4 3 3 2 8 13 14 11 10 10 9 13 17 17 17 17 17 16 14 13 11 11 10 9 10 9 10 10 11 10 10 11 11 13 12 13 13
2 2 4 4 6 2 3 2 5 3 3 4 6 4 3 5 10 13 13 13 10 8 7 9 16 16 17 18 17 16 15 14 12 10 9 10 8 9 11 10 11 10 10 10 10 11 12 12 11
2 1 1 2 6 5 4 6 5 3 3 4 8 6 1 3 8 12 10 8 9 7 6 6 9 13 18 17 16 15 14 13 11 10 9 8 8 8 9 10 10 10 10 10 10 11 11 11 10
3 2 4 1 3 5 3 10 5 6 6 6 5 6 5 6 12 11 9 8 7 5 4 4 5 8 8 9 16 15 14 13 12 12 11 10 9 9 8 7 8 10 9 10 10 11 11 10 9
3 3 2 4 4 8 1 3 5 3 6 4 7 7 6 18 15 11 10 6 6 7 7 5 4 4 5 5 9 13 15 14 13 10 10 8 3 4 5 7 8 10 10 10 10 10 10 9 9
4 3 8 8 5 7 10 8 9 4 3 6 6 3 16 20 17 15 14 12 11 12 9 7 7 6 4 5 5 6 6 4 4 5 5 4 4 4 4 6 9 9 10 11 10 10 8 7 2
6 7 6 7 12 10 9 6 9 8 6 12 13 15 18 19 16 16 14 16 18 14 9 10 9 7 8 6 3 3 3 3 3 5 5 4 3 3 2 2 2 2 7 3 6 4 3 4 3
5 10 8 6 5 3 6 5 8 10 12 8 10 19 19 18 17 19 17 14 12 11 12 10 9 8 7 4 4 4 4 3 4 5 6 4 3 3 3 2 3 3 2 3 2 2 3 4 4
6 5 7 9 7 9 3 9 9 11 14 9 13 20 20 19 17 14 15 14 12 13 11 11 10 10 9 7 5 5 6 5 5 6 5 4 4 3 3 3 3 3 3 3 3 3 3 4 4
6 6 7 8 3 5 2 3 8 9 8 11 17 16 17 19 19 14 14 15 15 14 13 12 12 11 10 10 8 7 5 6 6 5 5 6 4 4 4 3 4 4 4 4 4 4 4 4 4
4 4 6 6 4 3 2 1 8 6 8 13 14 20 21 21 18 19 17 16 18 14 13 14 13 12 12 11 8 6 6 5 5 5 5 6 6 5 5 4 3 4 4 5 4 3 3 4 4
2 2 3 4 1 3 6 8 10 7 9 14 17 21 16 18 19 16 17 16 15 13 14 13 12 13 12 11 8 7 5 5 4 5 6 6 5 5 4 3 4 3 3 4 4 4 4 4 4
6 4 5 9 2 3 3 8 11 3 10 14 16 18 15 15 15 17 17 17 15 15 14 14 13 14 13 10 7 7 5 4 4 4 5 7 8 6 5 5 3 3 3 4 5 4 5 3 4
10 5 4 5 6 6 5 11 9 6 6 14 14 11 14 17 23 18 17 17 14 13 13 13 12 13 12 6 4 2 2 3 3 4 4 7 6 8 6 4 5 4 3 4 4 5 4 3 3
4 4 7 3 4 4 7 8 12 8 7 8 9 12 15 22 12 14 15 15 11 11 12 15 14 12 10 6 5 3 7 3 3 4 5 6 6 7 8 5 5 5 6 6 7 4 5 4 3
5 5 6 6 3 5 8 14 17 5 8 10 13 9 15 7 13 15 16 16 15 14 15 14 16 13 11 8 5 3 3 3 2 3 6 7 7 7 7 8 7 7 5 6 7 7 3 3 4
4 5 5 8 4 4 6 9 7 6 5 4 7 9 9 14 14 17 18 21 16 16 17 17 16 15 13 10 6 3 3 2 2 2 3 5 7 8 8 8 7 7 6 6 8 8 8 5 4
6 9 8 2 3 6 3 9 8 8 7 6 9 10 16 17 14 17 21 19 21 21 15 14 14 15 12 13 11 10 5 6 2 4 3 3 6 8 8 8 7 6 5 6 7 6 6 5 5
12 6 8 4 5 1 3 3 11 4 8 9 12 12 16 19 15 19 23 24 24 18 16 14 12 13 13 14 13 9 4 2 3 2 3 4 4 6 8 9 8 7 5 6 6 7 5 3 4
3 3 5 5 4 1 8 7 7 6 9 7 4 10 13 15 14 17 16 14 16 13 12 13 14 13 14 13 11 10 4 6 3 3 2 2 1 2 5 7 7 7 7 7 6 6 7 6 3
5 6 3 4 4 8 3 4 11 9 12 10 12 12 10 11 9 11 17 15 16 16 15 14 16 13 13 13 10 9 8 5 6 5 2 3 3 3 5 5 6 5 6 7 7 7 7 7 5
7 10 7 6 5 8 4 6 8 11 13 9 9 12 11 8 8 13 15 16 18 16 15 16 16 14 13 12 10 9 6 6 5 5 5 3 3 3 3 5 4 6 6 7 7 5 5 6 7
3 4 4 5 3 3 5 9 10 7 9 4 10 9 9 8 9 10 11 12 14 14 16 16 16 15 13 11 9 6 8 7 6 4 2 2 3 3 5 6 6 7 6 7 8 6 6 6 5
6 4 4 2 2 5 7 6 8 12 12 9 7 6 5 6 9 10 9 9 8 10 9 12 13 14 12 12 9 9 7 5 5 6 5 5 4 4 5 6 6 5 5 7 8 5 5 6 4
2 3 2 6 4 5 4 9 7 10 9 8 4 7 7 11 10 11 11 10 11 10 9 10 11 13 11 11 9 7 6 6 6 6 5 5 5 6 6 5 5 6 6 6 5 5 6 5 5
6 10 7 7 4 3 3 11 2 7 9 6 5 8 10 10 11 11 11 12 12 11 9 9 8 10 9 8 7 8 6 6 6 5 4 4 5 5 5 6 7 7 6 6 7 7 6 7 6
Wind_Direction
176 160 187 178 65 63 290 327 105 122 175 93 121 147 184 129 170 209 79 135 127 138 150 151 155 154 151 152 147 142 137 133 130 129 132 139 138 135 141 154 147 136 128 125 125 123 123 120 126
151 170 260 280 75 43 285 258 215 217 138 119 91 117 98 125 108 119 131 146 137 140 145 152 156 157 154 153 153 149 144 138 134 135 138 141 132 133 133 138 146 146 137 139 133 131 129 129 128
169 234 310 40 114 190 232 222 195 122 154 144 102 74 124 153 92 157 151 147 138 141 149 161 159 157 156 156 158 156 150 145 142 142 144 145 144 135 142 146 142 147 141 145 135 140 136 133 127
175 240 281 10 265 238 198 178 219 148 232 91 97 68 82 177 148 155 143 144 141 145 153 165 164 160 160 159 161 159 155 152 149 148 150 152 157 153 147 142 147 142 152 135 139 140 133 143 139
22 48 352 301 293 280 219 160 178 177 196 112 114 166 58 50 100 129 142 148 149 153 157 165 168 166 165 163 164 164 162 159 158 156 157 155 164 152 156 150 150 157 154 139 147 150 139 140 142
97 94 20 6 317 332 68 137 168 267 162 145 105 106 147 131 130 152 152 148 150 158 160 168 173 169 168 170 168 166 168 166 165 167 164 168 169 160 166 163 160 161 151 146 154 150 147 150 148
159 86 270 269 324 339 160 155 251 199 169 205 143 127 192 202 151 150 144 130 138 148 162 169 169 175 174 176 173 170 171 169 168 169 164 175 178 177 177 175 170 172 161 155 160 164 159 163 161
140 108 331 333 281 263 211 155 206 164 228 129 132 170 197 194 149 140 127 127 129 146 156 176 166 173 171 178 176 177 174 173 176 178 169 172 178 180 191 185 188 177 175 166 172 170 170 170 175
128 50 304 279 307 278 181 187 177 178 140 211 186 164 194 136 137 132 130 123 149 167 172 165 172 160 153 154 178 175 179 179 182 170 175 177 149 179 198 176 209 193 185 185 182 183 176 178 192
130 142 220 210 241 268 269 207 165 145 200 248 177 88 134 143 151 156 166 173 181 182 183 175 168 163 146 177 187 166 180 165 158 163 179 162 173 188 205 202 202 217 199 199 189 189 184 187 189
180 205 218 226 244 243 265 241 164 145 219 219 193 156 151 160 167 168 183 182 188 188 177 182 178 161 172 185 170 172 173 157 159 177 175 174 189 196 218 214 232 195 229 204 189 196 168 167 182
191 240 247 265 221 289 236 205 181 174 211 205 190 165 155 172 185 177 182 189 183 184 189 181 180 167 178 171 180 180 180 181 173 186 179 175 188 196 200 208 213 194 201 213 210 173 181 176 192
219 246 256 253 283 248 235 208 191 232 223 105 141 164 175 177 189 195 186 183 183 187 188 187 177 177 184 186 179 186 198 189 198 181 189 177 185 195 183 212 207 196 187 196 203 195 196 209 210
218 210 246 262 227 269 300 354 146 245 118 142 172 163 175 189 191 186 189 187 189 189 188 180 183 186 182 200 187 202 192 190 182 199 180 193 194 185 193 200 222 201 183 183 199 195 204 212 221
274 259 298 233 163 285 66 347 225 242 164 171 170 186 186 189 184 195 190 194 187 191 181 184 180 184 187 197 200 209 203 170 180 195 180 188 193 193 201 183 210 214 194 177 180 208 211 217 229
313 20 258 269 97 231 121 257 250 234 195 193 182 199 192 186 190 194 195 198 191 184 182 181 180 186 192 193 197 203 190 191 190 191 171 186 198 185 182 191 215 197 196 190 190 183 210 231 214
352 233 241 306 110 129 125 266 273 241 215 209 202 197 195 187 190 194 198 201 188 189 177 180 178 186 192 191 188 205 178 181 187 191 175 178 188 185 183 183 220 190 186 206 193 206 186 204 231
222 224 246 233 304 352 319 270 285 283 208 215 212 198 198 198 205 189 188 203 190 190 180 178 182 186 186 169 161 160 182 175 179 198 192 176 189 183 190 203 200 190 195 204 192 190 197 185 203
185 230 252 242 189 268 266 277 284 304 253 216 214 193 208 215 194 195 190 194 181 182 178 181 177 186 172 166 172 193 214 180 184 195 193 187 188 191 189 202 212 196 201 205 212 193 180 203 163
223 238 263 284 243 175 288 288 281 271 240 212 212 217 219 186 183 192 195 192 194 182 187 189 185 178 181 183 180 160 162 190 159 179 200 203 205 193 193 197 203 200 194 193 200 201 168 180 178
218 208 240 236 309 248 294 304 322 314 290 256 213 226 215 209 193 191 193 198 193 194 191 188 185 176 179 169 142 105 87 74 134 204 215 215 210 201 200 204 198 192 191 201 203 196 187 184 190
244 206 240 240 87 261 133 289 301 277 267 265 238 218 228 221 204 193 194 195 196 202 189 186 182 171 173 162 176 186 172 179 192 185 201 198 205 201 193 202 199 185 188 191 194 185 193 152 173
233 139 208 210 188 48 237 132 269 332 280 236 234 231 236 239 207 201 195 195 198 194 188 175 168 169 171 175 183 181 167 113 184 171 229 219 208 194 191 191 176 188 190 189 180 171 167 189 171
260 145 61 65 107 71 245 164 280 244 226 272 221 213 231 234 209 209 203 188 190 186 164 166 164 171 170 172 172 180 155 179 165 243 208 169 218 225 207 193 184 184 182 186 184 183 187 197 191
118 83 316 338 6 220 149 117 228 256 250 225 246 271 240 227 213 185 178 180 174 175 167 163 164 170 165 165 169 148 177 176 161 168 118 229 137 216 229 210 184 197 185 183 182 185 188 191 196
184 161 162 215 218 269 168 252 261 226 246 259 278 265 277 249 187 179 175 171 174 169 164 164 166 166 159 161 160 163 162 157 177 176 187 200 161 227 205 191 193 209 192 180 181 192 192 192 201
182 165 195 125 35 52 270 292 302 298 297 298 299 296 264 223 183 162 161 166 161 162 166 163 159 163 159 158 151 150 182 172 193 146 124 268 193 188 181 186 188 213 206 182 177 187 187 190 201
155 183 62 17 26 312 300 293 245 295 289 313 333 355 34 87 95 101 109 121 130 136 141 144 153 159 149 144 153 175 177 178 171 166 180 200 185 185 169 185 186 180 180 180 172 176 171 185 190
147 180 357 131 147 174 262 268 222 256 289 297 12 67 73 91 99 108 112 100 110 108 128 138 142 141 145 153 164 155 180 187 189 189 199 176 176 176 173 171 159 171 163 161 164 164 163 182 183
200 201 159 121 245 169 188 260 292 283 289 314 179 135 125 111 110 112 118 123 128 130 127 130 131 141 157 153 156 169 183 178 183 198 195 194 180 168 175 176 163 171 173 175 170 178 175 183 193